This is the latest recevied weather packets stored in our database for station/object N5PRN. If no packets are shown the sender has not sent any weather packets the latest 10 day(s).
| Time | Temp. | Humidity | Pressure | Rain* | Wind** | Luminosity | Snow |
|---|---|---|---|---|---|---|---|
| 1777547358 | 17.22° C | 99% | 1011.8 hPa | 0 mm | - | 0 W/m² | - |
| 1777547057 | 17.22° C | 99% | 1011.9 hPa | 0 mm | - | 0 W/m² | - |
| 1777546754 | 17.22° C | 99% | 1012.2 hPa | 3.56 mm | - | 0 W/m² | - |
| 1777546450 | 17.22° C | 99% | 1012.1 hPa | 12.7 mm | - | 0 W/m² | - |
| 1777546147 | 17.22° C | 99% | 1011.7 hPa | 14.99 mm | - | 0 W/m² | - |
| 1777545843 | 17.22° C | 99% | 1011.9 hPa | 8.89 mm | - | 0 W/m² | - |
| 1777545541 | 17.22° C | 99% | 1012 hPa | 16.76 mm | - | 0 W/m² | - |
| 1777545236 | 17.22° C | 99% | 1012.1 hPa | 27.69 mm | - | 0 W/m² | - |
| 1777544935 | 17.22° C | 99% | 1012 hPa | 33.53 mm | - | 0 W/m² | - |
| 1777544630 | 17.22° C | 99% | 1012 hPa | 37.85 mm | - | 0 W/m² | - |
| 1777544327 | 17.22° C | 99% | 1011.3 hPa | 39.62 mm | - | 0 W/m² | - |
| 1777544024 | 17.22° C | 99% | 1011.3 hPa | 19.81 mm | - | 0 W/m² | - |
| 1777543721 | 17.78° C | 99% | 1012.1 hPa | 1.78 mm | - | 0 W/m² | - |
| 1777543417 | 17.78° C | 99% | 1011.1 hPa | 6.6 mm | - | 0 W/m² | - |
| 1777543112 | 17.78° C | 99% | 1011.1 hPa | 8.89 mm | - | 0 W/m² | - |
| 1777542809 | 17.78° C | 99% | 1011.1 hPa | 7.87 mm | - | 0 W/m² | - |
| 1777542506 | 17.78° C | 99% | 1011.4 hPa | 1.78 mm | - | 0 W/m² | - |
| 1777542202 | 17.78° C | 99% | 1011.7 hPa | 0 mm | - | 0 W/m² | - |
| 1777541899 | 17.78° C | 99% | 1011.6 hPa | 0 mm | - | 0 W/m² | - |
| 1777541597 | 17.78° C | 99% | 1011.8 hPa | 0 mm | - | 0 W/m² | - |
| 1777541293 | 18.33° C | 99% | 1012 hPa | 1.27 mm | - | 0 W/m² | - |
| 1777540989 | 18.33° C | 99% | 1012 hPa | 1.27 mm | - | 0 W/m² | - |
| 1777540686 | 18.89° C | 99% | 1011.7 hPa | 0 mm | - | 0 W/m² | - |
| 1777540383 | 18.89° C | 99% | 1011.9 hPa | 0 mm | - | 0 W/m² | - |
| 1777540079 | 19.44° C | 99% | 1011.8 hPa | 0 mm | - | 0 W/m² | - |
* Rain latest hour (hover to see other rain measurements)
** Current wind speed in m/s (hover to see current wind gust speed)